STARLINK-34384, 64312

Orbit data source: Space-Track

STARLINK-34384, 64312 is a payload satellite owned by SpaceX/Seattle (US) in LEO that was launched on Sun, 08 Jun 2025 UTC via an FALCON 9 launch vehicle from the Air Force Western Test Range (AFWTR). Payload-class satellites include a variety of spacecraft equipped with specific instruments for various scientific and technological missions. These include communications satellites like Starlink; space stations such as the ISS; scientific satellites like the Hubble; Earth observation satellites from companies like Planet Labs, Umbra, and HawkEye 360; GPS; miniature CubeSats for education and research; and military/defense satellites.

Loading next visibility...
Identifier
64312, 2025-123X
Orbit
LEO
Country
Flag of USUS
Related business
Manufacturer
SpaceX/Seattle
Mission
Operational Commercial Communications
Bus & Motor
STARLINK V2MO, Unknown motor
Mass
575 kg wet, ~530 kg dry
Launch date (UTC)
2025-06-08 (10 months ago)
Launch vehicle
FALCON 9
Launch site
Air Force Western Test Range (AFWTR)
Object type
Payload
Rocket body
Debris
Shape & HBR
Box + 2 Pan, 17.7 m
Radar Cross Section
36.964 m², Large (>1 m²)

Expand to show TLE details & history
Last TLE update: 21 hours ago

TLE from 21 hours ago
0 STARLINK-34384
1 64312U 25123X   26093.50161031  .00005093  00000-0  43422-3 0  9991
2 64312  70.0006 131.9593 0004124 270.0168  90.0519 14.98339950 45337
Epoch: 2026-04-03T12:02Z
TLE epoch observation values (Epoch: 2026-04-03T12:02:19.130Z)
Latitude
0.00001°
Longitude
119.54477°
Altitude
574.453 km
Speed
7.574 km/s
True Right ascension
08h 47m 50s
True Declination
0° 00' 00"
Sunlit
Object was in full shadow at epoch
Visualization orbit readout
Latitude
Unknown
Longitude
Unknown
Altitude
Unknown
Speed
Unknown
Apparent Right ascension
Unknown
Apparent Declination
Unknown
Sunlit
N/A
Visualization observer readout
Local Sidereal Time
14:59:53
Azimuth
Unknown
Elevation
Unknown
Doppler factor
Unknown
Orbital elements
Apogee altitude
572.839 km
Perigee altitude
567.108 km
Semi-major axis
6,948.11 km
Eccentricity
0.00041
Inclination
70.0006°
RAAN
131.9593°
Arg. of periapsis
270.0168°
True anomaly
90.09916°
Mean anomaly
90.0519°
Eccentric anomaly
90.07553°
Mean motion
3.74751 °/min
Orbital period
96.06 mins
BSTAR
0.00043422
Loading maneuver chart data...
Computing Atmospheric mass density...
Loading historical data...
Loading historical data...
Loading historical data...
Loading historical data...
Loading historical data...
Loading historical data...
Loading historical data...

Documentation

Showing up to 5 results
|